Theta_e
316 316 316 319 317 313 316 316 315 317 319 323 331 331 333 341 340 340 342 344 341 335 329 320 321 322 321 320 320 320 319 318 318 318 317 317 317 317 318 319 320 320 320 321 322 322 322 322 323
319 317 317 318 314 313 311 315 318 317 321 319 336 343 343 343 346 344 344 343 337 333 328 321 323 324 324 323 323 322 322 321 320 320 320 319 318 318 318 319 320 320 321 321 322 322 322 322 322
319 319 317 313 310 313 313 317 318 318 317 318 333 346 345 344 346 345 344 339 335 330 327 321 324 325 325 326 325 324 324 323 323 322 323 322 321 321 321 321 321 320 321 322 325 328 322 321 322
321 319 315 313 315 314 316 316 315 314 320 322 333 345 347 345 345 344 344 340 337 330 323 322 324 325 326 327 327 327 326 325 325 325 325 325 324 324 324 323 323 324 324 325 325 324 324 323 322
322 319 315 314 315 312 312 315 317 317 317 319 343 346 346 346 344 343 344 343 341 333 323 323 324 326 326 327 328 328 328 327 327 327 327 326 326 326 326 326 326 326 327 328 329 329 329 327 325
322 315 317 316 315 314 314 319 319 317 318 328 342 345 345 345 345 344 344 344 344 339 329 324 325 326 327 328 328 329 330 329 329 328 328 327 327 327 327 327 327 328 328 328 328 328 328 328 327
318 317 320 317 319 318 318 321 319 318 317 330 343 344 342 344 346 345 345 345 344 337 329 325 325 326 327 328 329 330 330 330 330 329 328 328 328 327 327 327 328 328 328 329 328 328 328 328 328
322 315 319 317 319 319 319 320 321 321 319 336 341 337 337 341 345 345 345 344 342 334 329 328 327 327 328 329 330 330 331 331 331 329 328 328 327 326 325 325 326 327 327 328 328 327 327 327 327
321 317 317 319 318 319 321 318 320 321 320 325 334 336 337 339 344 345 345 343 339 335 334 334 331 330 330 330 330 331 332 332 332 330 330 328 325 326 324 323 322 323 323 324 323 324 324 323 323
316 316 318 317 318 319 319 318 320 320 319 321 328 327 334 340 344 345 344 344 343 343 341 339 336 333 331 331 331 332 332 333 333 332 329 327 326 326 325 323 322 320 319 316 314 313 314 312 312
315 315 314 316 319 319 317 317 319 319 318 321 322 326 328 336 340 343 343 343 343 343 342 341 337 334 332 331 332 332 333 333 333 332 329 327 327 326 325 321 320 318 316 311 308 307 307 308 307
315 315 316 317 318 317 316 318 318 319 321 322 322 323 328 330 332 334 338 342 343 343 341 341 338 335 333 332 332 332 332 333 333 332 329 327 325 325 324 320 317 314 311 310 307 307 307 306 308
314 314 316 316 316 316 317 316 317 318 322 323 322 322 324 329 330 333 338 339 339 335 336 338 340 340 337 334 333 333 333 333 334 333 331 328 326 325 322 318 315 311 309 308 307 306 307 308 310
314 314 314 315 316 316 316 315 317 321 321 321 321 321 324 326 326 333 334 333 336 334 331 333 336 340 341 340 339 336 334 333 334 333 332 330 327 325 322 317 313 310 307 307 307 308 309 311 312
315 313 312 312 315 314 317 317 317 319 319 319 319 319 322 326 330 330 326 327 326 327 330 327 328 332 335 337 339 340 338 335 334 334 333 331 328 324 322 317 310 308 307 307 309 309 310 310 311
313 313 313 313 315 316 316 315 317 318 318 319 319 319 319 320 323 327 330 332 336 337 336 330 327 326 330 333 335 337 338 337 336 335 334 332 330 325 322 316 312 311 308 309 310 310 310 307 310
311 312 313 315 313 315 315 316 315 318 317 317 318 317 315 315 316 318 319 328 333 335 338 337 335 334 334 334 333 334 335 337 337 335 335 333 331 326 323 317 316 315 313 311 310 310 308 306 309
313 314 314 314 315 313 314 313 311 316 315 316 315 315 315 316 317 318 317 319 326 334 333 335 336 334 334 333 334 336 336 336 337 336 335 334 332 328 324 319 314 317 316 313 311 309 308 307 309
313 314 313 313 313 315 314 312 312 313 313 311 314 315 315 315 316 317 319 321 320 329 333 334 335 335 336 334 333 334 334 336 337 336 335 334 333 330 326 321 314 313 314 313 312 310 308 309 311
313 314 314 313 313 313 312 312 311 311 311 312 312 313 314 314 315 316 316 317 319 323 325 326 328 332 336 336 336 335 334 334 336 336 335 334 333 331 327 323 314 311 314 313 313 310 309 309 311
313 314 315 315 312 309 310 311 311 310 312 313 312 312 313 313 314 314 314 314 314 315 317 318 320 326 325 326 334 335 335 335 334 335 335 334 332 330 328 324 315 312 315 314 313 312 310 308 311
315 313 314 314 311 312 310 313 313 311 313 311 311 312 312 313 314 313 313 310 308 308 310 312 316 320 327 328 333 334 335 334 335 335 335 334 333 329 327 321 316 315 315 315 315 313 310 308 309
314 312 312 312 308 308 309 311 308 311 314 313 310 311 312 313 313 313 308 307 307 307 306 307 311 312 327 333 332 332 332 332 331 332 334 334 333 330 323 319 318 317 316 315 316 313 309 308 309
310 309 308 306 306 309 310 310 309 310 313 312 311 311 312 313 311 307 306 306 305 305 305 306 307 308 311 321 329 331 333 332 332 331 330 331 332 330 323 320 319 318 318 316 315 312 309 309 310
309 309 310 311 310 311 310 310 311 313 312 311 310 310 311 311 309 307 306 306 306 306 306 306 306 308 309 314 321 323 330 330 331 330 329 329 329 329 323 320 319 319 317 316 312 310 309 310 310
309 311 311 314 312 311 311 311 309 312 311 311 310 309 309 309 305 305 305 304 305 305 305 305 305 306 308 308 313 323 324 323 327 327 326 325 324 325 322 320 319 317 314 314 310 308 309 310 309
311 311 310 312 311 313 311 311 310 310 310 310 308 308 305 303 301 300 300 301 301 303 304 305 305 305 308 307 307 315 321 323 324 324 324 322 321 321 319 316 313 313 313 309 309 309 309 309 309
311 310 314 313 317 316 311 310 310 310 309 307 306 305 302 300 300 299 300 301 302 303 303 305 305 306 308 307 306 308 314 318 320 322 322 320 319 318 317 317 317 316 313 310 309 308 308 309 308
307 306 308 310 310 312 313 312 306 309 305 303 302 301 300 299 299 299 299 300 300 301 301 301 304 305 308 308 307 306 308 310 316 317 317 318 319 317 316 317 317 315 312 310 309 307 307 307 307
304 306 307 308 304 304 303 308 304 302 301 301 299 298 298 298 299 300 299 299 299 302 300 300 301 305 307 308 308 308 306 308 311 314 316 316 316 317 315 315 315 313 311 308 306 307 306 306 306
Wind_Speed
5 5 1 1 3 5 3 6 2 4 2 2 11 4 6 4 4 4 3 13 16 33 34 31 28 26 23 21 19 18 17 15 14 14 14 14 13 13 12 12 11 10 10 9 9 8 8 7 6
6 3 0 3 4 3 5 4 5 7 7 21 4 3 3 1 1 4 5 11 24 29 34 31 28 26 24 21 19 17 17 16 14 13 12 12 12 11 11 10 9 9 9 9 8 8 7 7 6
7 2 1 4 3 4 4 4 6 10 18 12 2 3 2 4 4 3 6 14 24 26 32 30 28 26 24 22 20 18 17 16 15 13 12 11 11 11 10 10 9 9 8 8 8 8 6 6 7
4 0 3 4 4 6 5 8 8 10 15 7 3 4 3 3 1 7 9 15 19 25 30 29 28 26 24 23 21 19 18 17 15 14 13 12 11 11 10 10 9 8 8 8 8 7 7 7 7
2 1 1 3 2 5 6 9 13 11 5 7 5 2 1 4 7 7 12 16 19 24 29 30 28 26 24 23 22 21 19 18 16 15 14 13 12 11 10 10 9 8 7 7 7 7 6 8 7
1 2 2 2 3 6 7 12 7 6 5 2 4 5 2 7 8 8 12 14 18 23 28 30 28 26 25 23 22 21 20 18 17 16 15 14 13 12 12 11 10 9 8 8 7 7 8 8 7
6 4 3 2 3 7 5 8 6 7 11 5 9 3 3 10 10 9 12 13 17 23 28 29 28 27 26 25 24 23 21 20 19 18 16 15 14 13 13 12 11 10 10 9 8 8 11 9 8
5 4 3 2 3 6 4 13 10 16 8 1 1 2 3 9 14 13 14 16 20 24 26 27 28 28 28 27 25 24 23 22 21 19 17 16 15 15 14 13 12 11 11 10 9 10 11 10 9
6 3 3 4 5 6 9 8 9 17 5 10 4 6 6 5 17 17 18 20 24 26 27 28 29 29 29 28 27 25 24 23 21 20 18 17 16 15 14 13 12 12 11 11 10 10 11 10 9
4 4 8 8 5 6 6 6 21 9 12 5 10 10 8 6 19 20 22 23 25 26 27 28 29 30 31 30 29 28 26 26 24 21 20 18 16 15 14 13 13 13 12 11 11 11 11 11 10
4 5 5 4 10 10 6 6 11 3 5 14 14 13 4 9 17 21 21 23 23 23 25 26 27 29 31 32 31 30 29 28 26 24 22 20 18 17 16 16 15 15 14 13 12 11 12 11 10
3 7 6 4 3 2 5 12 6 8 11 20 19 14 12 12 16 19 22 23 24 26 25 25 26 28 31 33 33 33 32 31 29 27 24 23 21 20 18 17 16 16 15 14 13 14 13 13 11
5 4 8 9 12 15 14 10 12 15 18 12 10 15 17 18 18 20 22 24 23 23 25 27 28 29 31 32 34 34 34 33 30 28 26 25 23 21 19 18 18 17 16 14 14 14 13 14 14
1 7 12 12 17 16 9 8 4 8 17 15 15 19 22 23 20 23 25 27 27 26 26 28 28 30 31 33 34 36 36 34 31 29 28 25 24 22 21 21 20 20 17 15 13 13 13 13 13
7 6 6 6 7 5 8 1 6 7 10 7 11 15 22 26 26 28 26 27 27 26 28 27 27 29 32 32 34 35 36 34 33 31 29 28 27 25 23 22 20 19 18 17 16 16 15 15 15
5 2 4 4 3 3 4 7 6 10 18 19 17 14 12 16 24 27 31 35 35 35 34 30 29 30 32 32 32 34 37 35 34 33 32 31 30 28 25 24 22 19 19 18 18 17 16 15 15
4 5 4 5 4 2 5 7 5 23 17 20 19 17 15 14 8 11 18 26 31 35 36 35 34 34 33 34 34 33 34 36 36 35 35 35 34 31 29 28 25 22 21 20 19 19 17 16 16
5 4 5 4 3 7 8 10 8 25 18 18 15 16 17 16 18 17 12 8 10 14 22 31 35 34 36 36 36 38 38 36 36 36 39 38 36 34 33 32 30 28 25 23 23 22 20 19 19
3 3 8 5 3 3 8 8 12 19 13 9 15 19 19 20 18 17 17 17 8 6 13 18 26 32 35 38 41 41 42 41 41 40 38 39 40 38 37 35 34 34 32 30 27 25 24 26 25
5 4 8 10 4 4 7 8 11 9 6 12 16 18 16 16 17 17 17 14 13 12 10 10 18 25 30 35 41 43 44 45 44 43 41 39 41 41 40 40 39 38 36 34 33 32 31 30 30
6 8 8 8 8 4 5 7 5 5 12 13 16 15 15 15 17 19 21 23 22 19 16 13 13 18 21 26 34 40 44 46 46 47 46 43 40 42 43 42 40 39 37 39 39 38 38 39 38
11 8 12 7 1 4 2 6 4 5 5 6 12 14 14 16 18 21 24 27 29 29 27 27 23 16 14 20 30 37 39 43 46 46 47 46 43 42 44 43 41 40 40 41 40 39 40 41 44
7 6 9 7 5 1 2 3 5 4 4 2 5 6 10 13 16 19 23 26 26 28 30 30 28 27 17 15 20 29 35 38 43 43 45 49 47 44 44 45 42 42 43 44 42 42 41 43 43
3 5 4 4 3 5 10 8 5 6 5 4 2 2 6 11 14 20 22 24 27 29 29 28 28 25 23 18 19 30 34 34 39 39 43 46 45 47 47 46 44 42 44 45 44 43 42 43 44
5 5 1 1 1 6 2 9 4 2 4 6 6 2 5 7 14 20 23 24 26 28 29 28 27 26 24 19 20 23 31 36 39 40 43 44 43 46 50 47 47 46 46 43 40 36 39 39 40
7 9 5 6 4 2 4 7 4 3 6 6 4 6 9 12 20 21 22 25 26 27 28 30 31 30 28 24 23 21 26 30 33 37 39 41 42 44 49 49 48 46 42 38 33 31 34 33 35
8 10 7 3 1 1 5 2 3 4 2 1 5 8 13 20 26 32 32 33 33 31 29 29 30 30 29 25 22 23 23 29 33 33 37 41 40 41 44 41 36 30 26 31 30 35 37 38 32
6 6 4 2 6 9 4 5 4 7 6 1 3 8 16 23 25 28 26 26 26 27 28 28 30 28 27 24 22 19 20 21 28 32 35 37 36 31 30 36 33 34 33 35 32 36 37 35 32
2 3 2 5 2 5 2 6 3 9 7 3 6 11 17 23 26 30 30 30 31 31 31 31 30 27 26 24 24 23 19 18 19 23 28 33 31 28 23 31 29 32 33 33 34 34 33 35 31
2 2 3 5 5 0 3 7 6 11 7 6 9 19 29 32 35 37 37 34 30 30 33 37 34 29 25 22 21 21 21 18 18 22 25 25 27 32 24 28 32 35 35 35 33 30 30 30 31
Wind_Direction
327 341 4 47 52 65 271 266 266 262 253 252 320 195 198 153 172 212 263 180 176 183 180 180 176 176 176 177 177 176 174 173 172 170 165 161 160 159 160 159 158 157 158 155 152 150 152 157 166
334 328 279 83 87 56 268 253 243 236 272 314 234 339 3 278 318 322 146 169 168 181 180 182 178 180 178 178 181 181 178 175 174 173 170 170 167 164 162 163 163 165 166 167 163 155 154 164 175
338 343 105 88 100 185 240 223 263 280 305 284 196 125 131 328 349 119 145 158 165 182 184 184 183 185 183 182 184 187 184 180 179 179 179 180 177 173 169 169 172 175 178 174 163 159 161 176 189
316 323 67 101 202 254 231 279 284 309 335 47 212 70 65 317 2 147 178 171 174 186 188 189 188 189 189 188 188 191 190 188 186 187 189 189 187 184 183 178 179 181 180 181 178 179 171 190 200
312 353 30 96 226 262 254 272 306 308 288 290 147 174 199 179 166 186 189 184 191 190 193 192 194 195 195 194 194 195 195 194 194 197 199 199 197 196 195 192 191 193 198 190 188 184 192 210 212
98 77 19 291 237 267 284 279 302 320 315 249 117 138 240 184 198 196 186 195 197 199 197 197 198 200 200 200 201 201 202 201 202 207 206 207 208 207 207 205 204 204 211 213 210 210 219 225 225
131 98 215 234 263 293 257 335 344 334 326 17 141 113 255 208 200 197 194 201 201 198 199 202 206 206 206 205 205 208 209 208 211 213 213 215 217 215 210 207 209 212 218 221 221 223 233 234 231
152 99 161 239 218 270 267 336 320 352 329 6 172 220 261 202 194 190 195 198 199 198 206 211 212 213 211 211 210 213 214 215 218 220 218 221 220 217 215 213 212 216 219 222 223 226 235 233 230
164 89 197 219 189 250 305 355 311 330 325 315 269 262 241 245 202 193 195 196 198 204 212 216 218 217 215 214 215 217 219 223 225 225 224 222 220 221 223 220 217 219 219 218 220 219 227 226 222
131 157 215 207 201 256 300 323 311 335 341 263 285 275 264 227 206 205 204 206 206 210 217 219 221 220 218 218 219 221 222 224 227 231 226 224 225 228 229 227 224 220 217 217 217 218 224 225 223
183 209 210 243 243 286 291 313 331 308 328 306 296 293 250 202 211 218 221 222 221 220 222 222 221 222 221 222 222 224 225 227 227 229 227 228 229 232 229 226 227 226 220 216 214 215 218 222 217
296 248 218 245 263 297 281 303 290 245 275 301 300 284 267 223 224 231 228 229 229 229 233 228 224 223 225 226 226 228 229 230 230 229 229 231 231 233 232 231 231 232 228 224 221 215 210 210 208
218 258 263 274 297 291 287 256 261 268 289 293 278 280 263 245 243 236 232 232 236 240 240 236 230 228 228 230 231 231 231 235 230 230 233 235 236 235 234 232 231 234 230 227 224 219 211 205 206
264 283 286 294 284 268 231 256 183 279 299 285 288 284 262 249 251 237 237 241 240 242 241 237 237 234 233 235 235 234 235 240 235 231 236 240 240 237 236 234 233 229 229 225 215 220 219 211 211
299 316 320 244 248 231 189 187 204 324 356 319 333 319 272 259 244 242 254 251 253 253 248 246 241 241 240 238 239 238 239 242 238 235 238 240 239 238 237 238 231 225 225 220 215 216 220 222 214
338 356 359 319 348 307 118 272 276 343 336 326 328 345 333 278 267 264 257 257 255 255 251 251 247 246 243 242 244 242 241 242 239 238 237 240 240 239 236 233 228 228 224 222 221 222 225 220 215
357 265 254 323 22 11 38 286 290 317 318 307 317 341 5 17 356 308 274 269 264 266 266 263 259 255 251 248 246 244 246 245 243 241 239 236 235 236 235 232 229 229 228 227 223 218 219 217 205
211 242 263 203 319 10 326 285 292 301 297 292 329 38 54 56 44 37 18 330 279 269 266 265 264 261 259 258 253 250 247 245 244 242 241 239 236 233 232 230 227 226 230 226 221 218 215 210 206
182 219 261 255 207 283 254 254 277 285 283 340 57 59 58 58 57 53 48 44 32 301 277 260 264 265 259 255 257 253 250 248 245 242 240 239 237 234 232 231 229 227 226 226 221 216 215 202 203
217 247 270 297 212 178 279 255 261 263 70 93 82 69 60 56 48 45 44 42 37 38 24 337 296 273 263 261 261 260 260 255 251 249 247 241 236 235 234 233 229 227 224 219 217 215 208 213 208
230 236 264 247 318 229 251 283 231 67 107 75 67 78 70 54 51 45 36 31 26 20 10 352 332 310 286 271 262 259 263 261 256 253 247 246 240 237 235 233 232 232 228 224 221 219 218 214 205
244 196 239 252 233 270 13 287 258 157 113 65 47 51 59 60 52 44 35 25 19 15 10 4 354 336 306 271 256 253 258 261 267 260 255 248 242 239 237 236 233 233 232 229 229 226 225 221 209
244 176 204 215 194 127 225 277 253 137 144 84 54 60 67 59 48 35 22 14 12 7 4 0 359 357 339 284 286 275 268 269 268 268 263 257 246 239 237 236 236 234 233 233 230 228 225 222 219
156 109 67 55 103 255 206 187 223 191 175 131 161 102 66 50 44 20 11 7 4 1 359 357 353 352 349 325 277 268 270 274 272 274 268 263 256 242 237 235 238 239 238 236 233 228 223 220 222
148 111 278 287 211 243 342 200 264 149 100 135 176 128 33 29 19 9 4 358 355 356 352 348 344 342 340 329 311 288 267 261 264 268 268 267 264 250 237 233 232 233 233 234 231 231 225 218 223
187 182 173 208 208 270 328 232 280 131 125 105 42 7 8 12 357 351 349 349 345 341 341 337 334 330 325 321 313 297 282 280 271 267 265 264 258 253 240 232 232 232 230 223 229 221 235 229 223
180 206 195 110 133 280 222 288 333 134 144 355 7 15 1 350 344 339 336 332 332 330 331 328 324 320 315 310 300 292 287 283 273 268 266 261 258 251 240 235 234 231 230 241 224 227 226 226 224
202 138 140 100 233 238 239 256 224 186 185 133 342 323 329 329 331 333 329 322 320 318 318 314 307 310 305 302 302 295 288 279 278 270 265 263 260 253 247 243 240 242 247 230 230 230 223 214 212
142 145 79 119 141 186 262 253 282 152 135 178 249 291 304 323 330 326 320 313 306 304 305 309 304 296 295 294 300 302 304 295 281 278 274 261 253 242 242 239 230 242 236 228 223 218 226 235 225
57 187 166 159 232 29 152 256 135 127 165 211 281 324 333 332 328 325 320 316 308 311 299 298 300 284 279 277 292 299 301 309 290 277 268 259 263 246 234 235 231 233 225 218 210 221 216 227 232